Regional Weather Roundup
Issued by NWS Columbia, SC

Home | Current Version | Previous Version | Text Only | Print | Product List | Glossary On
Versions: 1 2 3 4 5 6 7 8 9 10 11 12 13 14 15 16 17 18 19 20 21 22 23 24 25 26 27 28 29 30 31 32 33 34 35 36 37 38 39 40 41 42 43 44 45 46 47 48 49 50
051
ASUS42 KCAE 251210
RWRCAE
REGIONAL WEATHER ROUNDUP
NATIONAL WEATHER SERVICE COLUMBIA SC
800 AM EDT MON JUL 25 2016

NOTE: "FAIR" INDICATES FEW OR NO CLOUDS BELOW 12,000 FEET WITH NO
SIGNIFICANT WEATHER AND/OR OBSTRUCTIONS TO VISIBILITY.

NOT ALL STATIONS ARE QUALITY CONTROLLED BY THE NATIONAL
WEATHER SERVICE. USE DATA WITH CAUTION...ESPECIALLY
DEWPOINT OBSERVATIONS.

SCZ001>056-GAZ040-063>065-077-251300-
...UPSTATE SOUTH CAROLINA...

CITY           SKY/WX    TMP DP  RH WIND       PRES   REMARKS
ANDERSON       SUNNY     77  72  84 SW5       30.08R
6HR MIN TEMP:  75; 6HR MAX TEMP:  79;

LIBERTY        SUNNY     73  71  92 CALM      30.08S
6HR MIN TEMP:  69; 6HR MAX TEMP:  74;

SPARTANBURG    MOSUNNY   77  70  78 CALM      30.08R
CLEMSON        SUNNY     80  72  76 CALM      30.09R
6HR MIN TEMP:  76; 6HR MAX TEMP:  82;

GREENVILLE     SUNNY     78  71  79 W7        30.10R
6HR MIN TEMP:  77; 6HR MAX TEMP:  82;

GREENWOOD      SUNNY     79  69  71 SW7       30.09R
6HR MIN TEMP:  75; 6HR MAX TEMP:  80;

GREER          SUNNY     79  71  76 SW5       30.08R
6HR MIN TEMP:  75; 6HR MAX TEMP:  79;

ROCK HILL      PTSUNNY   79  72  79 SW6       30.09R
6HR MIN TEMP:  74; 6HR MAX TEMP:  79;

CHESTER        SUNNY     77  70  78 CALM      30.09R
LAURENS        SUNNY     77  72  83 SW5       30.08R


...CENTRAL SOUTH CAROLINA...

CITY           SKY/WX    TMP DP  RH WIND       PRES   REMARKS
COLUMBIA APT   CLOUDY    81  72  74 SW6       30.07R
6HR MIN TEMP:  78; 6HR MAX TEMP:  82;

COLUMBIA OWENS MOSUNNY   81  72  74 S6          N/A
6HR MIN TEMP:  78; 6HR MAX TEMP:  82;

MCENTIRE ANGB  SUNNY     79  74  83 S7        30.07S
6HR MIN TEMP:  75; 6HR MAX TEMP:  79;

ORANGEBURG     SUNNY     78  74  87 S6        30.08S
6HR MIN TEMP:  76; 6HR MAX TEMP:  78;

SUMTER SHAW    SUNNY     79  73  82 S6        30.05S
6HR MIN TEMP:  77; 6HR MAX TEMP:  80;

NEWBERRY       SUNNY     77  72  83 S3        30.10R
AIKEN          FAIR      77  70  78 S5        30.11S
MANNING        FAIR      79  72  78 SW3       30.09R
LANCASTER      SUNNY     79  75  89 CALM      30.08R


...EASTERN AND COASTAL SOUTH CAROLINA...

CITY           SKY/WX    TMP DP  RH WIND       PRES   REMARKS
N MYRTLE BCH   SUNNY     83  77  82 SW7       30.08S
6HR MIN TEMP:  80; 6HR MAX TEMP:  83;

CONWAY         FAIR      77  75  94 SW3       30.09R
MARION           N/A     77  73  88 SW3       30.08R
HARTSVILLE     FAIR      77  73  88 S5        30.07S
FLORENCE       CLOUDY    80  75  84 SW6       30.08S
6HR MIN TEMP:  78; 6HR MAX TEMP:  80;

DARLINGTON     MOSUNNY   78  75  90 S7        30.08R
6HR MIN TEMP:  77; 6HR MAX TEMP:  79;

CHARLESTON APT MOSUNNY   83  75  77 SW3       30.09R
6HR MIN TEMP:  78; 6HR MAX TEMP:  83;

MOUNT PLEASANT FAIR      79  79 100 CALM      30.09R
WALTERBORO     SUNNY     81  79  94 CALM      30.10R
BEAUFORT       MOSUNNY   82  75  79 CALM      30.09R
6HR MIN TEMP:  76; 6HR MAX TEMP:  82;



...EASTERN GEORGIA...

CITY           SKY/WX    TMP DP  RH WIND       PRES   REMARKS
AUGUSTA BUSH F MOSUNNY   76  73  91 E3        30.07R
6HR MIN TEMP:  74; 6HR MAX TEMP:  78;

AUGUSTA DANIEL MOSUNNY   79  71  76 S7        30.08S
6HR MIN TEMP:  79; 6HR MAX TEMP:  83;

WASHINGTON     FAIR      81  77  89 S3        30.08R
CLAXTON        FAIR      74  74 100 CALM      30.08S
6HR MIN TEMP:  71; 6HR MAX TEMP:  76;

STATESBORO     SUNNY     78  74  90 CALM      30.08S
6HR MIN TEMP:  74; 6HR MAX TEMP:  79;

SAVANNAH       MOSUNNY   78  74  87 CALM      30.08R
6HR MIN TEMP:  74; 6HR MAX TEMP:  79;



...SOUTHERN NORTH CAROLINA...

CITY           SKY/WX    TMP DP  RH WIND       PRES   REMARKS
CHARLOTTE      MOSUNNY   79  71  76 S6        30.08R
6HR MIN TEMP:  76; 6HR MAX TEMP:  80;

MONROE         MOSUNNY   78  71  79 SW8       30.07R
6HR MIN TEMP:  75; 6HR MAX TEMP:  80;

WADESBORO      MOSUNNY   79  74  87 CALM      30.07R
ROCKINGHAM     SUNNY     78  75  92 S5        30.08R
RUTHERFORDTON    N/A     74  74 100 NW3       30.11R
ASHEVILLE      SUNNY     71  67  87 CALM      30.17R
6HR MIN TEMP:  68; 6HR MAX TEMP:  72;


$$




USA.gov is the U.S. government's official web portal to all federal, state and local government web resources and services.